Weather Service Report


741 
ASUS44 KBMX 301810
RWRAL 
             
ALABAMA REGIONAL WEATHER ROUNDUP
NATIONAL WEATHER SERVICE BIRMINGHAM AL
100 PM CDT FRI SEP 30 2016

NOTE: "FAIR" INDICATES FEW OR NO CLOUDS BELOW 12,000 FEET
WITH NO SIGNIFICANT WEATHER AND/OR OBSTRUCTIONS TO VISIBILITY.

THE REMARK "TC" DENOTES TEMPERATURE IN DEGREES CELSIUS.

ALZ001>011-014-016>018-020-301900-
NORTH ALABAMA
  
CITY           SKY/WX    TMP DP  RH WIND       PRES   REMARKS
MUSCLE SHOALS  PTSUNNY   70  52  52 N7        30.11F                  
6HR MIN TEMP:  54; 6HR MAX TEMP:  70;                                

HUNTSVILLE     PTSUNNY   63  53  70 NW9       30.11F                  
6HR MIN TEMP:  49; 6HR MAX TEMP:  66;                                

DECATUR        CLOUDY    65  55  70 SW10      30.11F                  
6HR MIN TEMP:  47; 6HR MAX TEMP:  65;                                

HALEYVILLE     FAIR      70  50  49 N5        30.11F                  
6HR MIN TEMP:  52; 6HR MAX TEMP:  71;                                

GADSDEN        PTSUNNY   72  50  45 NW8       30.07F                  
6HR MIN TEMP:  47; 6HR MAX TEMP:  73;                                

$$
 
ALZ012-013-022-023-030>036-040>044-301900-
WEST CENTRAL ALABAMA
  
CITY           SKY/WX    TMP DP  RH WIND       PRES   REMARKS
TUSCALOOSA     MOSUNNY   72  51  47 VRB5      30.09F                  
6HR MIN TEMP:  50; 6HR MAX TEMP:  75;                                

$$
 
ALZ015-024>027-033>036-040>044-301900-
CENTRAL ALABAMA
  
CITY           SKY/WX    TMP DP  RH WIND       PRES   REMARKS
BIRMINGHAM     MOSUNNY   72  49  44 N7        30.10F                  
6HR MIN TEMP:  51; 6HR MAX TEMP:  74;                                

MONTGOMERY     MOSUNNY   77  48  35 NW12      30.08F                  
6HR MIN TEMP:  51; 6HR MAX TEMP:  77;                                

SHELBY CO ARPT MOSUNNY   71  47  42 W5        30.08F                  
6HR MIN TEMP:  50; 6HR MAX TEMP:  74;                                

MAXWELL AFB    MOSUNNY   75  49  40 VRB6      30.07F                  
6HR MIN TEMP:  53; 6HR MAX TEMP:  76;                                

GREENVILLE     FAIR      78  49  35 VRB7      30.08F                  
6HR MIN TEMP:  53; 6HR MAX TEMP:  78;                                

$$
 
ALZ019-021-028-029-037-038-045>048-301900-
EAST CENTRAL ALABAMA
  
CITY           SKY/WX    TMP DP  RH WIND       PRES   REMARKS
ANNISTON       MOSUNNY   72  45  37 W10       30.07F                  
6HR MIN TEMP:  48; 6HR MAX TEMP:  73;                                

ALEXANDER CITY SUNNY     75  56  52 W12       30.08F                  
6HR MIN TEMP:  50; 6HR MAX TEMP:  75;                                

AUBURN         MOSUNNY   72  47  40 NW12      30.08F                  
6HR MIN TEMP:  53; 6HR MAX TEMP:  73;                                

$$
 
ALZ051>064-301900-
SOUTHWEST ALABAMA
  
CITY           SKY/WX    TMP DP  RH WIND       PRES   REMARKS
MOBILE         MOSUNNY   76  54  46 VRB5      30.10F                  
6HR MIN TEMP:  54; 6HR MAX TEMP:  78;                                

BROOKLEY FIELD SUNNY     78  54  43 VRB3      30.10F                  
6HR MIN TEMP:  57; 6HR MAX TEMP:  79;                                

EVERGREEN      SUNNY     77  53  43 VRB5      30.09F                  
6HR MIN TEMP:  51; 6HR MAX TEMP:  77;                                

$$

ALZ049-050-065>069-301900-
SOUTHEAST ALABAMA
  
CITY           SKY/WX    TMP DP  RH WIND       PRES   REMARKS
DOTHAN         SUNNY     77  50  38 N10       30.09F                  
6HR MIN TEMP:  53; 6HR MAX TEMP:  78;                                

OZARK          SUNNY     75  53  45 VRB7      30.06F                  
6HR MIN TEMP:  53; 6HR MAX TEMP:  77;                                

TROY           SUNNY     75  49  39 N8        30.08F                  
6HR MIN TEMP:  48; 6HR MAX TEMP:  76;                                

EUFAULA        FAIR      80  47  31 W7        30.04F                  
6HR MIN TEMP:  50; 6HR MAX TEMP:  80;                                

$$
  

Return to Home page


Western Regional Climate Center, wrcc@dri.edu